Total_Precipitation_Accumulation
0.01 0.00 0.00 0.01 0.00 0.00 0.00 0.00 0.01 0.03 0.07 0.12 0.14 0.12 0.12 0.11 0.12 0.14 0.12 0.12 0.10 0.09 0.10 0.16 0.28 0.45 0.62 0.80 1.03 1.13 0.93 0.79 0.65 0.54 0.55 0.64 0.71 0.75 0.77 0.81 0.87 0.82 0.68
0.01 0.01 0.01 0.01 0.01 0.01 0.00 0.00 0.00 0.00 0.00 0.01 0.02 0.05 0.10 0.12 0.15 0.16 0.14 0.13 0.12 0.09 0.09 0.12 0.19 0.32 0.51 0.74 0.98 1.29 1.21 1.07 0.91 0.72 0.56 0.56 0.63 0.68 0.72 0.78 0.83 0.90 0.85
0.01 0.01 0.01 0.01 0.01 0.01 0.00 0.00 0.00 0.00 0.00 0.00 0.00 0.00 0.01 0.03 0.07 0.12 0.12 0.14 0.16 0.13 0.11 0.12 0.15 0.20 0.33 0.57 0.85 1.17 1.47 1.38 1.20 1.04 0.80 0.58 0.57 0.63 0.68 0.77 0.84 0.90 0.95
0.01 0.01 0.01 0.01 0.01 0.00 0.01 0.01 0.01 0.01 0.01 0.00 0.00 0.00 0.00 0.00 0.00 0.02 0.04 0.09 0.14 0.17 0.15 0.15 0.16 0.17 0.22 0.34 0.59 0.92 1.41 1.54 1.53 1.39 1.22 0.91 0.67 0.62 0.67 0.74 0.85 0.93 0.99
0.01 0.01 0.01 0.01 0.01 0.01 0.01 0.01 0.01 0.00 0.01 0.00 0.00 0.00 0.00 0.00 0.00 0.00 0.00 0.02 0.05 0.11 0.15 0.16 0.16 0.16 0.16 0.20 0.34 0.60 1.02 1.44 1.62 1.61 1.53 1.34 1.00 0.73 0.70 0.75 0.83 0.95 1.05
0.01 0.01 0.01 0.01 0.01 0.01 0.01 0.01 0.01 0.00 0.00 0.01 0.00 0.00 0.00 0.00 0.00 0.00 0.00 0.00 0.01 0.05 0.09 0.12 0.14 0.15 0.15 0.15 0.21 0.35 0.65 1.09 1.54 1.65 1.61 1.60 1.44 1.05 0.82 0.80 0.85 0.97 1.09
0.01 0.01 0.01 0.01 0.01 0.01 0.01 0.01 0.00 0.01 0.01 0.01 0.01 0.01 0.00 0.00 0.00 0.00 0.00 0.00 0.00 0.02 0.06 0.10 0.13 0.14 0.14 0.15 0.15 0.18 0.37 0.72 1.23 1.77 1.80 1.72 1.78 1.57 1.16 0.98 0.97 1.04 1.18
0.01 0.01 0.01 0.01 0.02 0.01 0.01 0.00 0.01 0.02 0.02 0.01 0.03 0.06 0.04 0.01 0.00 0.00 0.00 0.00 0.00 0.00 0.02 0.06 0.12 0.13 0.12 0.14 0.11 0.12 0.17 0.34 0.73 1.38 2.03 2.09 2.05 2.11 1.76 1.37 1.22 1.23 1.35
0.01 0.01 0.01 0.02 0.02 0.02 0.01 0.01 0.02 0.04 0.04 0.02 0.03 0.14 0.24 0.16 0.04 0.00 0.00 0.00 0.00 0.00 0.01 0.02 0.06 0.11 0.14 0.15 0.14 0.12 0.14 0.20 0.37 0.80 1.58 2.32 2.44 2.52 2.45 1.90 1.59 1.49 1.53
0.02 0.01 0.01 0.02 0.02 0.01 0.02 0.02 0.03 0.04 0.08 0.08 0.05 0.06 0.14 0.20 0.24 0.12 0.02 0.03 0.04 0.03 0.02 0.02 0.03 0.07 0.13 0.18 0.21 0.21 0.22 0.23 0.30 0.51 1.03 1.88 2.62 2.87 3.00 2.67 2.09 1.84 1.76
0.02 0.02 0.02 0.02 0.02 0.01 0.02 0.03 0.04 0.05 0.08 0.11 0.11 0.10 0.08 0.07 0.13 0.23 0.11 0.04 0.07 0.08 0.07 0.05 0.06 0.09 0.12 0.20 0.23 0.23 0.30 0.35 0.46 0.53 0.74 1.21 2.16 2.91 3.33 3.35 2.79 2.17 1.93
0.02 0.03 0.02 0.02 0.02 0.02 0.03 0.04 0.05 0.06 0.06 0.08 0.11 0.13 0.17 0.19 0.15 0.20 0.20 0.07 0.03 0.04 0.06 0.09 0.09 0.12 0.15 0.20 0.26 0.35 0.35 0.43 0.60 0.58 0.53 0.70 1.29 2.17 2.97 3.43 3.28 2.63 2.14
0.03 0.02 0.02 0.02 0.02 0.03 0.03 0.04 0.06 0.06 0.06 0.08 0.11 0.13 0.15 0.17 0.17 0.21 0.26 0.16 0.07 0.02 0.02 0.04 0.08 0.10 0.15 0.18 0.22 0.28 0.27 0.34 0.43 0.49 0.41 0.41 0.68 1.25 2.09 3.01 3.43 3.09 2.49
0.03 0.02 0.02 0.02 0.02 0.03 0.04 0.05 0.06 0.06 0.07 0.10 0.11 0.13 0.18 0.15 0.18 0.26 0.33 0.38 0.31 0.10 0.03 0.03 0.04 0.07 0.12 0.17 0.16 0.19 0.16 0.20 0.27 0.35 0.38 0.34 0.41 0.66 1.23 2.14 3.33 3.75 3.17
0.03 0.03 0.02 0.02 0.03 0.03 0.04 0.07 0.08 0.09 0.11 0.12 0.15 0.17 0.22 0.19 0.21 0.24 0.30 0.45 0.64 0.47 0.14 0.03 0.05 0.08 0.14 0.15 0.17 0.16 0.14 0.14 0.19 0.26 0.34 0.37 0.36 0.45 0.67 1.19 2.11 3.41 4.07
0.03 0.03 0.03 0.02 0.03 0.04 0.05 0.08 0.09 0.11 0.14 0.15 0.19 0.23 0.25 0.25 0.25 0.26 0.32 0.36 0.51 0.64 0.40 0.08 0.05 0.08 0.19 0.20 0.18 0.16 0.15 0.17 0.17 0.19 0.23 0.29 0.35 0.42 0.54 0.77 1.26 2.08 3.29
0.03 0.04 0.03 0.04 0.06 0.08 0.10 0.12 0.12 0.14 0.17 0.19 0.22 0.26 0.27 0.29 0.32 0.29 0.32 0.36 0.38 0.46 0.45 0.14 0.05 0.06 0.16 0.23 0.21 0.16 0.15 0.17 0.15 0.16 0.20 0.27 0.36 0.45 0.57 0.71 0.94 1.38 2.11
0.04 0.04 0.04 0.06 0.10 0.13 0.15 0.17 0.18 0.17 0.20 0.22 0.24 0.28 0.30 0.29 0.30 0.28 0.31 0.34 0.31 0.30 0.36 0.23 0.08 0.07 0.12 0.19 0.27 0.28 0.22 0.20 0.19 0.19 0.22 0.31 0.41 0.47 0.54 0.68 0.86 1.13 1.52
0.05 0.04 0.04 0.08 0.17 0.24 0.22 0.18 0.21 0.22 0.22 0.24 0.26 0.30 0.30 0.30 0.30 0.27 0.32 0.32 0.27 0.24 0.29 0.32 0.16 0.09 0.13 0.15 0.27 0.37 0.32 0.28 0.24 0.23 0.24 0.27 0.34 0.44 0.49 0.58 0.74 0.94 1.14
0.05 0.05 0.05 0.06 0.17 0.35 0.38 0.30 0.34 0.32 0.26 0.23 0.20 0.19 0.26 0.36 0.36 0.35 0.38 0.33 0.30 0.33 0.37 0.43 0.32 0.20 0.20 0.21 0.32 0.44 0.47 0.43 0.35 0.28 0.27 0.26 0.31 0.44 0.47 0.45 0.46 0.56 0.76
0.06 0.05 0.05 0.05 0.11 0.44 0.81 0.75 0.69 0.51 0.31 0.19 0.13 0.12 0.21 0.35 0.41 0.56 0.67 0.59 0.58 0.67 0.66 0.67 0.59 0.47 0.41 0.42 0.46 0.46 0.61 0.59 0.50 0.41 0.34 0.28 0.28 0.28 0.30 0.31 0.33 0.41 0.53
0.10 0.07 0.05 0.05 0.06 0.32 0.86 0.94 0.70 0.39 0.24 0.18 0.14 0.10 0.14 0.26 0.31 0.40 0.56 0.67 0.77 0.92 0.97 0.97 0.92 0.81 0.59 0.51 0.51 0.60 0.68 0.81 0.78 0.55 0.50 0.38 0.34 0.37 0.32 0.29 0.33 0.38 0.49
0.09 0.09 0.07 0.05 0.05 0.19 0.70 0.81 0.51 0.28 0.18 0.15 0.12 0.10 0.12 0.20 0.28 0.35 0.41 0.46 0.52 0.68 0.91 1.04 1.09 0.80 0.62 0.54 0.66 0.82 0.81 0.89 0.85 0.76 0.85 0.71 0.46 0.44 0.40 0.44 0.51 0.47 0.50
0.07 0.07 0.07 0.06 0.04 0.11 0.55 0.68 0.41 0.23 0.14 0.12 0.08 0.09 0.10 0.14 0.27 0.48 0.50 0.45 0.40 0.47 0.69 0.91 1.12 0.97 0.78 0.78 1.01 1.27 1.34 1.23 0.91 0.78 0.95 1.03 0.66 0.54 0.55 0.59 0.60 0.53 0.51
0.07 0.06 0.06 0.05 0.04 0.06 0.34 0.58 0.40 0.21 0.14 0.10 0.07 0.07 0.10 0.14 0.29 0.55 0.58 0.47 0.34 0.33 0.42 0.69 0.98 1.12 1.10 1.15 1.32 1.65 1.78 1.62 1.22 0.82 0.87 1.09 0.95 0.79 0.81 0.86 0.78 0.65 0.54
0.08 0.07 0.05 0.05 0.05 0.04 0.19 0.43 0.44 0.26 0.15 0.11 0.09 0.08 0.14 0.26 0.40 0.56 0.54 0.52 0.60 0.46 0.39 0.41 0.47 0.59 0.70 0.79 1.03 1.36 1.60 1.63 1.35 1.19 0.99 1.07 1.19 1.17 1.28 1.14 0.99 0.75 0.56